| time (UTC) | temp F | wind direction | speed MPH | gust MPH | rain 1hr in | rain 24hr in | rain mn in | humidity % | barometer mb |
| 20260904005844 | 80 | 125 | 0.0 | 0.0 | 0.00 | 0.58 | 0.58 | 96 | 1012.3 |
| 20260904005401 | 80 | 125 | 0.0 | 4.0 | 0.00 | 0.58 | 0.58 | 96 | 1012.3 |
| 20260904004837 | 80 | 125 | 0.0 | 4.0 | 0.00 | 0.58 | 0.58 | 96 | 1012.3 |
| 20260904004349 | 80 | 122 | 1.0 | 2.0 | 0.00 | 0.58 | 0.58 | 96 | 1012.4 |
| 20260904003842 | 80 | 115 | 0.0 | 0.0 | 0.00 | 0.58 | 0.58 | 96 | 1012.4 |
| 20260904003356 | 80 | 65 | 0.0 | 0.0 | 0.00 | 0.58 | 0.58 | 96 | 1012.4 |
| 20260904002850 | 80 | 65 | 0.0 | 1.0 | 0.00 | 0.58 | 0.58 | 96 | 1012.7 |
| 20260904002323 | 80 | 65 | 0.0 | 1.0 | 0.00 | 0.58 | 0.58 | 96 | 1012.7 |
| 20260904001839 | 80 | 65 | 0.0 | 1.0 | 0.00 | 0.58 | 0.58 | 97 | 1012.7 |
| 20260904001331 | 80 | 65 | 0.0 | 0.0 | 0.00 | 0.58 | 0.58 | 97 | 1012.8 |
| 20260904000824 | 80 | 65 | 0.0 | 1.0 | 0.00 | 0.58 | 0.58 | 97 | 1012.8 |
| 20260904000337 | 80 | 65 | 0.0 | 1.0 | 0.00 | 0.58 | 0.58 | 97 | 1012.8 |
| 20260903235849 | 80 | 65 | 0.0 | 3.0 | 0.00 | 0.58 | 0.58 | 97 | 1012.8 |
| 20260903235347 | 79 | 65 | 1.0 | 3.0 | 0.00 | 0.58 | 0.58 | 96 | 1012.8 |
| 20260903234856 | 79 | 65 | 0.0 | 1.0 | 0.00 | 0.58 | 0.58 | 97 | 1012.8 |
| 20260903234329 | 79 | 65 | 0.0 | 0.0 | 0.00 | 0.58 | 0.58 | 97 | 1012.8 |
| 20260903233825 | 79 | 65 | 0.0 | 0.0 | 0.00 | 0.58 | 0.58 | 97 | 1012.8 |
| 20260903233320 | 79 | 65 | 0.0 | 2.0 | 0.00 | 0.58 | 0.58 | 97 | 1012.8 |
| 20260903232835 | 79 | 65 | 1.0 | 2.0 | 0.00 | 0.58 | 0.58 | 97 | 1012.8 |
| 20260903232328 | 79 | 65 | 0.0 | 2.0 | 0.00 | 0.58 | 0.58 | 97 | 1012.8 |
| 20260903231840 | 79 | 65 | 0.0 | 2.0 | 0.00 | 0.58 | 0.58 | 97 | 1012.8 |
| 20260903231333 | 79 | 65 | 0.0 | 1.0 | 0.00 | 0.58 | 0.58 | 97 | 1012.8 |
| 20260903230824 | 78 | 65 | 0.0 | 2.0 | 0.00 | 0.58 | 0.58 | 97 | 1012.8 |
| 20260903230338 | 78 | 65 | 0.0 | 2.0 | 0.00 | 0.58 | 0.58 | 97 | 1012.8 |
| 20260903225829 | 78 | 65 | 0.0 | 2.0 | 0.00 | 0.58 | 0.58 | 97 | 1013.0 |
| 20260903225322 | 78 | 65 | 0.0 | 2.0 | 0.00 | 0.58 | 0.58 | 97 | 1013.0 |
| 20260903224835 | 78 | 82 | 0.0 | 3.0 | 0.00 | 0.58 | 0.58 | 97 | 1013.0 |
| 20260903224328 | 78 | 138 | 1.0 | 4.0 | 0.00 | 0.58 | 0.58 | 97 | 1013.0 |
| 20260903223841 | 78 | 120 | 2.0 | 4.0 | 0.00 | 0.58 | 0.58 | 97 | 1013.0 |
| 20260903223333 | 78 | 72 | 1.0 | 2.0 | 0.00 | 0.58 | 0.58 | 97 | 1013.0 |
| 20260903222845 | 78 | 72 | 0.0 | 3.0 | 0.00 | 0.58 | 0.58 | 97 | 1012.8 |
| 20260903222335 | 78 | 81 | 2.0 | 3.0 | 0.00 | 0.58 | 0.58 | 97 | 1012.8 |
| 20260903221847 | 78 | 49 | 0.0 | 1.0 | 0.00 | 0.58 | 0.58 | 97 | 1012.8 |
| 20260903221345 | 78 | 67 | 0.0 | 3.0 | 0.00 | 0.58 | 0.58 | 97 | 1013.3 |
| 20260903220853 | 78 | 67 | 1.0 | 3.0 | 0.00 | 0.58 | 0.58 | 97 | 1013.3 |
| 20260903220325 | 78 | 74 | 1.0 | 3.0 | 0.00 | 0.58 | 0.58 | 97 | 1013.3 |
| 20260903215855 | 78 | 107 | 0.0 | 2.0 | 0.00 | 0.58 | 0.58 | 97 | 1013.5 |
| 20260903215330 | 78 | 134 | 0.0 | 3.0 | 0.00 | 0.58 | 0.58 | 97 | 1013.5 |
| 20260903214822 | 77 | 61 | 0.0 | 3.0 | 0.00 | 0.58 | 0.58 | 97 | 1013.5 |
| 20260903214402 | 77 | 61 | 0.0 | 4.0 | 0.01 | 0.58 | 0.58 | 97 | 1013.7 |
| 20260903213853 | 77 | 74 | 0.0 | 4.0 | 0.01 | 0.58 | 0.58 | 96 | 1013.7 |
| 20260903213345 | 78 | 54 | 0.0 | 3.0 | 0.01 | 0.58 | 0.58 | 97 | 1013.7 |
| 20260903212837 | 78 | 68 | 1.0 | 3.0 | 0.02 | 0.58 | 0.58 | 97 | 1013.8 |
| 20260903212332 | 78 | 68 | 0.0 | 3.0 | 0.02 | 0.58 | 0.58 | 97 | 1013.8 |
| 20260903211845 | 78 | 63 | 0.0 | 2.0 | 0.02 | 0.58 | 0.58 | 97 | 1013.8 |
| 20260903211337 | 78 | 52 | 0.0 | 2.0 | 0.02 | 0.58 | 0.58 | 97 | 1013.9 |
| 20260903210850 | 78 | 331 | 0.0 | 0.0 | 0.03 | 0.58 | 0.58 | 97 | 1013.9 |
| 20260903210340 | 78 | 331 | 0.0 | 0.0 | 0.03 | 0.58 | 0.58 | 97 | 1013.9 |
| 20260903205828 | 78 | 331 | 0.0 | 0.0 | 0.04 | 0.58 | 0.58 | 97 | 1014.1 |
| 20260903205335 | 78 | 331 | 0.0 | 0.0 | 0.04 | 0.58 | 0.58 | 97 | 1014.1 |
| 20260903204826 | 78 | 331 | 0.0 | 0.0 | 0.05 | 0.58 | 0.58 | 97 | 1014.1 |
| 20260903204341 | 78 | 331 | 0.0 | 0.0 | 0.04 | 0.57 | 0.57 | 97 | 1014.3 |
| 20260903203833 | 78 | 331 | 0.0 | 0.0 | 0.04 | 0.57 | 0.57 | 97 | 1014.3 |
| 20260903203326 | 78 | 331 | 0.0 | 1.0 | 0.04 | 0.57 | 0.57 | 97 | 1014.3 |
| 20260903202840 | 77 | 331 | 0.0 | 1.0 | 0.04 | 0.56 | 0.56 | 97 | 1014.3 |
| 20260903202334 | 77 | 331 | 0.0 | 0.0 | 0.04 | 0.56 | 0.56 | 97 | 1014.3 |
| 20260903201850 | 77 | 331 | 0.0 | 1.0 | 0.04 | 0.56 | 0.56 | 97 | 1014.3 |
| 20260903201341 | 77 | 331 | 0.0 | 1.0 | 0.04 | 0.56 | 0.56 | 97 | 1014.0 |
| 20260903200834 | 77 | 331 | 0.0 | 0.0 | 0.03 | 0.55 | 0.55 | 97 | 1014.0 |
| 20260903200326 | 77 | 331 | 0.0 | 0.0 | 0.03 | 0.55 | 0.55 | 97 | 1014.0 |
| 20260903195838 | 77 | 331 | 0.0 | 0.0 | 0.03 | 0.54 | 0.54 | 97 | 1014.3 |
| 20260903195353 | 76 | 331 | 0.0 | 0.0 | 0.04 | 0.54 | 0.54 | 97 | 1014.3 |
| 20260903194845 | 76 | 331 | 0.0 | 0.0 | 0.05 | 0.53 | 0.53 | 96 | 1014.3 |
| 20260903194404 | 76 | 331 | 0.0 | 1.0 | 0.08 | 0.53 | 0.53 | 96 | 1014.3 |
| 20260903193833 | 76 | 331 | 0.0 | 1.0 | 0.15 | 0.53 | 0.53 | 96 | 1014.3 |
| 20260903193327 | 76 | 331 | 0.0 | 1.0 | 0.23 | 0.53 | 0.53 | 96 | 1014.3 |
| 20260903192839 | 75 | 331 | 0.0 | 1.0 | 0.39 | 0.52 | 0.52 | 96 | 1014.4 |
| 20260903192330 | 75 | 331 | 0.0 | 2.0 | 0.51 | 0.52 | 0.52 | 95 | 1014.4 |
| 20260903191823 | 76 | 324 | 0.0 | 2.0 | 0.51 | 0.52 | 0.52 | 95 | 1014.4 |
| 20260903191337 | 76 | 341 | 0.0 | 2.0 | 0.51 | 0.52 | 0.52 | 95 | 1014.4 |
| 20260903190828 | 75 | 93 | 0.0 | 0.0 | 0.51 | 0.52 | 0.52 | 95 | 1014.4 |
| 20260903190341 | 75 | 93 | 0.0 | 1.0 | 0.51 | 0.52 | 0.52 | 95 | 1014.4 |
| 20260903185830 | 75 | 93 | 0.0 | 2.0 | 0.50 | 0.51 | 0.51 | 94 | 1014.6 |
| 20260903185347 | 75 | 93 | 0.0 | 3.0 | 0.49 | 0.50 | 0.50 | 94 | 1014.6 |
| 20260903184858 | 75 | 93 | 1.0 | 3.0 | 0.48 | 0.49 | 0.49 | 94 | 1014.6 |
| 20260903184330 | 75 | 12 | 0.0 | 5.0 | 0.44 | 0.45 | 0.45 | 93 | 1015.2 |
| 20260903183841 | 76 | 12 | 1.0 | 11.0 | 0.38 | 0.39 | 0.39 | 91 | 1015.2 |
| 20260903183335 | 77 | 141 | 6.0 | 14.0 | 0.30 | 0.31 | 0.31 | 90 | 1015.2 |
| 20260903182829 | 79 | 154 | 8.0 | 14.0 | 0.14 | 0.15 | 0.15 | 88 | 1015.3 |
| 20260903182338 | 80 | 149 | 3.0 | 12.0 | 0.00 | 0.01 | 0.01 | 88 | 1015.3 |
| 20260903181831 | 80 | 161 | 7.0 | 10.0 | 0.00 | 0.01 | 0.01 | 86 | 1015.3 |
| 20260903181342 | 81 | 121 | 1.0 | 9.0 | 0.00 | 0.01 | 0.01 | 84 | 1014.8 |
| 20260903180853 | 83 | 75 | 3.0 | 10.0 | 0.00 | 0.01 | 0.01 | 83 | 1014.8 |
| 20260903180327 | 84 | 93 | 3.0 | 11.0 | 0.00 | 0.01 | 0.01 | 82 | 1014.8 |
| 20260903175838 | 85 | 99 | 2.0 | 11.0 | 0.00 | 0.01 | 0.01 | 83 | 1014.9 |
| 20260903175351 | 86 | 76 | 2.0 | 3.0 | 0.00 | 0.01 | 0.01 | 82 | 1014.9 |
| 20260903174822 | 86 | 79 | 0.0 | 2.0 | 0.00 | 0.01 | 0.01 | 81 | 1014.9 |
| 20260903174339 | 86 | 28 | 0.0 | 3.0 | 0.00 | 0.01 | 0.01 | 81 | 1014.9 |
| 20260903173832 | 86 | 28 | 1.0 | 2.0 | 0.00 | 0.01 | 0.01 | 81 | 1014.9 |
| 20260903173325 | 86 | 92 | 0.0 | 1.0 | 0.00 | 0.01 | 0.01 | 80 | 1014.9 |
| 20260903172822 | 87 | 37 | 0.0 | 3.0 | 0.00 | 0.01 | 0.01 | 80 | 1014.4 |
| 20260903172402 | 87 | 359 | 0.0 | 3.0 | 0.00 | 0.01 | 0.01 | 80 | 1014.4 |
| 20260903171833 | 87 | 352 | 2.0 | 4.0 | 0.00 | 0.01 | 0.01 | 79 | 1014.4 |
| 20260903171325 | 87 | 331 | 1.0 | 6.0 | 0.00 | 0.01 | 0.01 | 79 | 1014.8 |
| 20260903170834 | 87 | 23 | 1.0 | 6.0 | 0.00 | 0.01 | 0.01 | 79 | 1014.8 |
| 20260903170325 | 87 | 296 | 2.0 | 5.0 | 0.00 | 0.01 | 0.01 | 80 | 1014.8 |
| 20260903165902 | 88 | 354 | 2.0 | 5.0 | 0.00 | 0.01 | 0.01 | 79 | 1014.8 |
| 20260903165333 | 88 | 298 | 1.0 | 5.0 | 0.00 | 0.01 | 0.01 | 79 | 1014.8 |
| 20260903164825 | 88 | 318 | 1.0 | 4.0 | 0.00 | 0.01 | 0.01 | 79 | 1014.8 |
| 20260903164336 | 88 | 305 | 2.0 | 4.0 | 0.00 | 0.01 | 0.01 | 80 | 1014.8 |
| 20260903163828 | 88 | 300 | 3.0 | 4.0 | 0.00 | 0.01 | 0.01 | 79 | 1014.8 |
| 20260903163342 | 87 | 293 | 2.0 | 6.0 | 0.00 | 0.01 | 0.01 | 80 | 1014.8 |
| 20260903162835 | 87 | 262 | 3.0 | 6.0 | 0.00 | 0.01 | 0.01 | 80 | 1014.8 |
| 20260903162345 | 87 | 260 | 1.0 | 4.0 | 0.00 | 0.01 | 0.01 | 80 | 1014.8 |
| 20260903161857 | 87 | 314 | 2.0 | 4.0 | 0.00 | 0.01 | 0.01 | 80 | 1014.8 |
| 20260903161352 | 88 | 296 | 2.0 | 4.0 | 0.01 | 0.01 | 0.01 | 80 | 1014.8 |
| 20260903160827 | 88 | 219 | 1.0 | 4.0 | 0.01 | 0.01 | 0.01 | 79 | 1014.8 |
| 20260903160341 | 88 | 258 | 3.0 | 4.0 | 0.01 | 0.01 | 0.01 | 79 | 1014.8 |
| 20260903155834 | 88 | 197 | 0.0 | 3.0 | 0.01 | 0.01 | 0.01 | 81 | 1014.8 |
| 20260903155328 | 87 | 186 | 1.0 | 3.0 | 0.01 | 0.01 | 0.01 | 81 | 1014.8 |
| 20260903154840 | 87 | 154 | 0.0 | 3.0 | 0.01 | 0.01 | 0.01 | 82 | 1014.8 |
| 20260903154331 | 86 | 192 | 0.0 | 3.0 | 0.01 | 0.01 | 0.01 | 83 | 1014.8 |
| 20260903153823 | 86 | 192 | 2.0 | 4.0 | 0.01 | 0.01 | 0.01 | 84 | 1014.8 |
| 20260903153336 | 86 | 153 | 2.0 | 4.0 | 0.01 | 0.01 | 0.01 | 84 | 1014.8 |
| 20260903152830 | 85 | 193 | 0.0 | 0.0 | 0.01 | 0.01 | 0.01 | 86 | 1014.9 |
| 20260903152325 | 85 | 193 | 0.0 | 3.0 | 0.01 | 0.01 | 0.01 | 86 | 1014.9 |
| 20260903151820 | 85 | 193 | 1.0 | 3.0 | 0.01 | 0.01 | 0.01 | 85 | 1014.9 |
| 20260903151334 | 85 | 140 | 1.0 | 3.0 | 0.00 | 0.00 | 0.00 | 85 | 1015.0 |
| 20260903150827 | 85 | 206 | 0.0 | 4.0 | 0.00 | 0.00 | 0.00 | 85 | 1015.0 |
| 20260903150335 | 85 | 205 | 1.0 | 6.0 | 0.00 | 0.00 | 0.00 | 85 | 1015.0 |
| 20260903145826 | 84 | 146 | 3.0 | 6.0 | 0.00 | 0.00 | 0.00 | 85 | 1015.3 |
| 20260903145324 | 84 | 169 | 3.0 | 8.0 | 0.00 | 0.00 | 0.00 | 86 | 1015.3 |
| 20260903144839 | 84 | 152 | 2.0 | 9.0 | 0.00 | 0.00 | 0.00 | 86 | 1015.3 |
| 20260903144331 | 84 | 131 | 6.0 | 9.0 | 0.00 | 0.00 | 0.00 | 86 | 1015.0 |
| 20260903143824 | 84 | 130 | 3.0 | 4.0 | 0.00 | 0.00 | 0.00 | 87 | 1015.0 |
| 20260903143337 | 84 | 201 | 1.0 | 7.0 | 0.00 | 0.00 | 0.00 | 88 | 1015.0 |
| 20260903142829 | 84 | 141 | 4.0 | 7.0 | 0.00 | 0.00 | 0.00 | 87 | 1015.1 |
| 20260903142409 | 84 | 139 | 1.0 | 7.0 | 0.00 | 0.00 | 0.00 | 87 | 1015.1 |
| 20260903141838 | 84 | 167 | 3.0 | 7.0 | 0.00 | 0.00 | 0.00 | 87 | 1015.1 |
| 20260903141351 | 84 | 165 | 2.0 | 6.0 | 0.00 | 0.00 | 0.00 | 87 | 1015.0 |
| 20260903140824 | 84 | 141 | 3.0 | 7.0 | 0.00 | 0.00 | 0.00 | 86 | 1015.0 |
| 20260903140337 | 84 | 125 | 4.0 | 8.0 | 0.00 | 0.00 | 0.00 | 86 | 1015.0 |
| 20260903135827 | 84 | 151 | 5.0 | 8.0 | 0.00 | 0.00 | 0.00 | 86 | 1015.0 |
| 20260903135339 | 84 | 135 | 2.0 | 5.0 | 0.00 | 0.00 | 0.00 | 86 | 1015.0 |
| 20260903134832 | 84 | 146 | 3.0 | 5.0 | 0.00 | 0.00 | 0.00 | 86 | 1015.0 |
| 20260903134322 | 84 | 130 | 2.0 | 6.0 | 0.00 | 0.00 | 0.00 | 87 | 1014.9 |
| 20260903133838 | 83 | 162 | 4.0 | 6.0 | 0.00 | 0.00 | 0.00 | 87 | 1014.9 |
| 20260903133330 | 83 | 189 | 1.0 | 5.0 | 0.00 | 0.00 | 0.00 | 87 | 1014.9 |
| 20260903132825 | 83 | 127 | 2.0 | 4.0 | 0.00 | 0.00 | 0.00 | 87 | 1014.8 |
| 20260903132338 | 83 | 153 | 3.0 | 4.0 | 0.00 | 0.00 | 0.00 | 87 | 1014.8 |
| 20260903131830 | 83 | 129 | 1.0 | 3.0 | 0.00 | 0.00 | 0.00 | 87 | 1014.8 |
| 20260903131325 | 83 | 179 | 1.0 | 4.0 | 0.00 | 0.00 | 0.00 | 87 | 1014.7 |
| 20260903130903 | 83 | 139 | 3.0 | 5.0 | 0.00 | 0.00 | 0.00 | 86 | 1014.7 |
| 20260903130332 | 83 | 141 | 2.0 | 5.0 | 0.00 | 0.00 | 0.00 | 86 | 1014.7 |
| 20260903125822 | 83 | 130 | 3.0 | 4.0 | 0.00 | 0.00 | 0.00 | 85 | 1014.4 |
| 20260903125329 | 83 | 188 | 1.0 | 5.0 | 0.00 | 0.00 | 0.00 | 85 | 1014.4 |
| 20260903124822 | 83 | 179 | 2.0 | 5.0 | 0.00 | 0.00 | 0.00 | 85 | 1014.4 |
| 20260903124334 | 83 | 172 | 2.0 | 4.0 | 0.00 | 0.00 | 0.00 | 84 | 1014.3 |
| 20260903123828 | 83 | 184 | 2.0 | 4.0 | 0.00 | 0.00 | 0.00 | 84 | 1014.3 |
| 20260903123339 | 83 | 191 | 3.0 | 4.0 | 0.00 | 0.00 | 0.00 | 84 | 1014.3 |
| 20260903122832 | 83 | 147 | 3.0 | 4.0 | 0.00 | 0.00 | 0.00 | 84 | 1014.2 |
| 20260903122347 | 83 | 194 | 2.0 | 5.0 | 0.00 | 0.00 | 0.00 | 84 | 1014.2 |
| 20260903121859 | 82 | 175 | 1.0 | 5.0 | 0.00 | 0.00 | 0.00 | 84 | 1014.2 |
| 20260903121330 | 82 | 207 | 2.0 | 5.0 | 0.00 | 0.00 | 0.00 | 85 | 1014.1 |
| 20260903120843 | 82 | 177 | 2.0 | 5.0 | 0.00 | 0.00 | 0.00 | 85 | 1014.1 |
| 20260903120358 | 82 | 189 | 2.0 | 5.0 | 0.00 | 0.00 | 0.00 | 86 | 1014.1 |
| 20260903115827 | 82 | 179 | 1.0 | 5.0 | 0.00 | 0.00 | 0.00 | 87 | 1013.8 |
| 20260903115341 | 82 | 179 | 0.0 | 7.0 | 0.00 | 0.00 | 0.00 | 87 | 1013.8 |
| 20260903114833 | 83 | 203 | 4.0 | 7.0 | 0.00 | 0.00 | 0.00 | 87 | 1013.8 |
| 20260903114326 | 83 | 183 | 3.0 | 6.0 | 0.00 | 0.00 | 0.00 | 87 | 1013.8 |
| 20260903113823 | 83 | 177 | 3.0 | 6.0 | 0.00 | 0.00 | 0.00 | 87 | 1013.8 |
| 20260903113336 | 83 | 184 | 2.0 | 5.0 | 0.00 | 0.00 | 0.00 | 87 | 1013.8 |
| 20260903112828 | 83 | 208 | 3.0 | 7.0 | 0.00 | 0.00 | 0.00 | 87 | 1013.8 |
| 20260903112322 | 83 | 182 | 3.0 | 7.0 | 0.00 | 0.00 | 0.00 | 87 | 1013.8 |
| 20260903111834 | 83 | 174 | 3.0 | 5.0 | 0.00 | 0.00 | 0.00 | 87 | 1013.8 |
| 20260903111346 | 83 | 161 | 2.0 | 5.0 | 0.00 | 0.00 | 0.00 | 87 | 1013.9 |
| 20260903110840 | 83 | 170 | 3.0 | 5.0 | 0.00 | 0.00 | 0.00 | 87 | 1013.9 |
| 20260903110333 | 83 | 189 | 2.0 | 6.0 | 0.00 | 0.00 | 0.00 | 87 | 1013.9 |
| 20260903105841 | 83 | 186 | 3.0 | 6.0 | 0.00 | 0.00 | 0.00 | 87 | 1013.8 |
| 20260903105331 | 83 | 160 | 4.0 | 6.0 | 0.00 | 0.00 | 0.00 | 87 | 1013.8 |
| 20260903104824 | 83 | 167 | 2.0 | 6.0 | 0.00 | 0.00 | 0.00 | 87 | 1013.8 |
| 20260903104337 | 83 | 184 | 3.0 | 6.0 | 0.00 | 0.00 | 0.00 | 87 | 1013.5 |
| 20260903103830 | 83 | 186 | 2.0 | 10.0 | 0.00 | 0.00 | 0.00 | 87 | 1013.5 |
| 20260903103323 | 83 | 190 | 3.0 | 5.0 | 0.00 | 0.00 | 0.00 | 87 | 1013.5 |
| 20260903102902 | 83 | 182 | 3.0 | 9.0 | 0.00 | 0.00 | 0.00 | 87 | 1013.5 |
| 20260903102332 | 83 | 171 | 4.0 | 9.0 | 0.00 | 0.00 | 0.00 | 87 | 1013.5 |
| 20260903101825 | 83 | 149 | 2.0 | 6.0 | 0.00 | 0.00 | 0.00 | 87 | 1013.5 |
| 20260903101338 | 83 | 181 | 3.0 | 6.0 | 0.00 | 0.00 | 0.00 | 87 | 1013.6 |
| 20260903100833 | 83 | 176 | 3.0 | 5.0 | 0.00 | 0.00 | 0.00 | 87 | 1013.6 |
| 20260903100346 | 83 | 191 | 4.0 | 5.0 | 0.00 | 0.00 | 0.00 | 87 | 1013.6 |
| 20260903095904 | 83 | 175 | 3.0 | 5.0 | 0.00 | 0.00 | 0.00 | 87 | 1013.6 |
| 20260903095354 | 83 | 171 | 4.0 | 6.0 | 0.00 | 0.00 | 0.00 | 87 | 1013.6 |
| 20260903094827 | 83 | 191 | 3.0 | 6.0 | 0.00 | 0.00 | 0.00 | 87 | 1013.6 |
| 20260903094406 | 83 | 198 | 3.0 | 6.0 | 0.00 | 0.00 | 0.00 | 87 | 1013.5 |
| 20260903093837 | 84 | 153 | 4.0 | 6.0 | 0.00 | 0.00 | 0.00 | 86 | 1013.5 |
| 20260903093328 | 84 | 186 | 3.0 | 6.0 | 0.00 | 0.00 | 0.00 | 86 | 1013.5 |
| 20260903092837 | 84 | 203 | 4.0 | 6.0 | 0.00 | 0.00 | 0.00 | 86 | 1013.7 |
| 20260903092329 | 84 | 198 | 2.0 | 5.0 | 0.00 | 0.00 | 0.00 | 86 | 1013.7 |
| 20260903091842 | 84 | 175 | 3.0 | 5.0 | 0.00 | 0.00 | 0.00 | 86 | 1013.7 |
| 20260903091333 | 84 | 186 | 3.0 | 7.0 | 0.00 | 0.00 | 0.00 | 86 | 1013.5 |
| 20260903090826 | 84 | 175 | 3.0 | 7.0 | 0.00 | 0.00 | 0.00 | 86 | 1013.5 |
| 20260903090322 | 84 | 175 | 3.0 | 7.0 | 0.00 | 0.00 | 0.00 | 86 | 1013.5 |
| 20260903085833 | 84 | 186 | 5.0 | 10.0 | 0.00 | 0.00 | 0.00 | 86 | 1013.4 |
| 20260903085328 | 84 | 126 | 4.0 | 10.0 | 0.00 | 0.00 | 0.00 | 86 | 1013.4 |
| 20260903084819 | 84 | 163 | 3.0 | 9.0 | 0.00 | 0.00 | 0.00 | 86 | 1013.4 |
| 20260903084334 | 84 | 179 | 5.0 | 9.0 | 0.00 | 0.00 | 0.00 | 86 | 1013.3 |
| 20260903083824 | 84 | 227 | 3.0 | 10.0 | 0.00 | 0.00 | 0.00 | 86 | 1013.3 |
| 20260903083337 | 83 | 181 | 3.0 | 10.0 | 0.00 | 0.00 | 0.00 | 86 | 1013.3 |
| 20260903082829 | 83 | 182 | 5.0 | 10.0 | 0.00 | 0.00 | 0.00 | 86 | 1013.3 |
| 20260903082342 | 83 | 186 | 4.0 | 11.0 | 0.00 | 0.00 | 0.00 | 86 | 1013.3 |
| 20260903081835 | 83 | 185 | 7.0 | 11.0 | 0.00 | 0.00 | 0.00 | 86 | 1013.3 |
| 20260903081328 | 83 | 216 | 6.0 | 9.0 | 0.00 | 0.00 | 0.00 | 86 | 1013.3 |
| 20260903080823 | 83 | 183 | 3.0 | 8.0 | 0.00 | 0.00 | 0.00 | 86 | 1013.3 |
| 20260903080334 | 83 | 183 | 5.0 | 8.0 | 0.00 | 0.00 | 0.00 | 87 | 1013.3 |
| 20260903075829 | 83 | 168 | 4.0 | 10.0 | 0.00 | 0.00 | 0.00 | 87 | 1013.3 |
| 20260903075323 | 83 | 181 | 7.0 | 10.0 | 0.00 | 0.00 | 0.00 | 87 | 1013.3 |
| 20260903074903 | 83 | 135 | 3.0 | 7.0 | 0.00 | 0.00 | 0.00 | 87 | 1013.3 |
| 20260903074333 | 83 | 175 | 4.0 | 11.0 | 0.00 | 0.00 | 0.00 | 87 | 1013.3 |
| 20260903073825 | 83 | 189 | 5.0 | 11.0 | 0.00 | 0.00 | 0.00 | 87 | 1013.3 |
| 20260903073339 | 83 | 150 | 4.0 | 8.0 | 0.00 | 0.00 | 0.00 | 88 | 1013.3 |
| 20260903072832 | 83 | 203 | 3.0 | 7.0 | 0.00 | 0.00 | 0.00 | 88 | 1013.3 |
| 20260903072327 | 83 | 216 | 4.0 | 7.0 | 0.00 | 0.00 | 0.00 | 88 | 1013.3 |
| 20260903071837 | 83 | 188 | 3.0 | 7.0 | 0.00 | 0.00 | 0.00 | 88 | 1013.3 |
| 20260903071327 | 83 | 147 | 4.0 | 7.0 | 0.00 | 0.00 | 0.00 | 88 | 1013.4 |
| 20260903070839 | 83 | 203 | 3.0 | 7.0 | 0.00 | 0.00 | 0.00 | 89 | 1013.4 |
| 20260903070330 | 83 | 185 | 3.0 | 9.0 | 0.00 | 0.00 | 0.00 | 89 | 1013.4 |
| 20260903065819 | 83 | 171 | 4.0 | 9.0 | 0.00 | 0.00 | 0.00 | 89 | 1013.8 |
| 20260903065334 | 83 | 178 | 4.0 | 9.0 | 0.00 | 0.00 | 0.00 | 89 | 1013.8 |
| 20260903064827 | 83 | 175 | 3.0 | 10.0 | 0.00 | 0.00 | 0.00 | 89 | 1013.8 |
| 20260903064343 | 83 | 196 | 6.0 | 10.0 | 0.00 | 0.00 | 0.00 | 89 | 1013.7 |
| 20260903063854 | 83 | 139 | 3.0 | 9.0 | 0.00 | 0.00 | 0.00 | 89 | 1013.7 |
| 20260903063345 | 83 | 137 | 5.0 | 9.0 | 0.00 | 0.00 | 0.00 | 89 | 1013.7 |
| 20260903062837 | 83 | 141 | 5.0 | 8.0 | 0.00 | 0.00 | 0.00 | 89 | 1013.9 |
| 20260903062329 | 83 | 130 | 4.0 | 7.0 | 0.00 | 0.00 | 0.00 | 89 | 1013.9 |
| 20260903061839 | 83 | 142 | 5.0 | 8.0 | 0.00 | 0.00 | 0.00 | 89 | 1013.9 |
| 20260903061332 | 83 | 141 | 4.0 | 9.0 | 0.00 | 0.00 | 0.00 | 89 | 1014.2 |
| 20260903060823 | 83 | 141 | 6.0 | 9.0 | 0.00 | 0.00 | 0.00 | 88 | 1014.2 |
| 20260903060337 | 84 | 203 | 4.0 | 10.0 | 0.00 | 0.00 | 0.00 | 88 | 1014.2 |
| 20260903055827 | 84 | 150 | 4.0 | 11.0 | 0.00 | 0.00 | 0.00 | 87 | 1014.3 |
| 20260903055338 | 84 | 168 | 5.0 | 11.0 | 0.00 | 0.00 | 0.00 | 86 | 1014.3 |
| 20260903054828 | 85 | 144 | 5.0 | 11.0 | 0.00 | 0.00 | 0.00 | 85 | 1014.3 |
| 20260903054342 | 85 | 196 | 4.0 | 11.0 | 0.00 | 0.00 | 0.00 | 85 | 1014.5 |
| 20260903053851 | 85 | 187 | 3.0 | 10.0 | 0.00 | 0.00 | 0.00 | 84 | 1014.5 |
| 20260903053325 | 85 | 186 | 4.0 | 8.0 | 0.00 | 0.00 | 0.00 | 84 | 1014.5 |
| 20260903052838 | 85 | 147 | 4.0 | 6.0 | 0.00 | 0.00 | 0.00 | 84 | 1014.8 |
| 20260903052330 | 85 | 194 | 4.0 | 6.0 | 0.00 | 0.00 | 0.00 | 84 | 1014.8 |
| 20260903051825 | 85 | 177 | 3.0 | 9.0 | 0.00 | 0.00 | 0.00 | 84 | 1014.8 |
| 20260903051321 | 85 | 210 | 4.0 | 9.0 | 0.00 | 0.00 | 0.00 | 84 | 1014.9 |
| 20260903050833 | 85 | 126 | 3.0 | 5.0 | 0.00 | 0.00 | 0.00 | 84 | 1014.9 |
| 20260903050344 | 85 | 198 | 2.0 | 5.0 | 0.00 | 0.00 | 0.00 | 83 | 1014.9 |
| 20260903045828 | 85 | 172 | 4.0 | 6.0 | 0.00 | 0.00 | 0.00 | 83 | 1014.9 |
| 20260903045340 | 85 | 170 | 3.0 | 6.0 | 0.00 | 0.00 | 0.00 | 83 | 1014.9 |
| 20260903044833 | 85 | 175 | 3.0 | 6.0 | 0.00 | 0.00 | 0.00 | 83 | 1014.9 |
| 20260903044329 | 85 | 219 | 4.0 | 5.0 | 0.00 | 0.00 | 0.00 | 83 | 1015.1 |
| 20260903043823 | 86 | 195 | 2.0 | 7.0 | 0.00 | 0.00 | 0.00 | 82 | 1015.1 |
| 20260903043336 | 86 | 159 | 4.0 | 7.0 | 0.00 | 0.00 | 0.00 | 82 | 1015.1 |
| 20260903042829 | 86 | 215 | 2.0 | 6.0 | 0.00 | 0.00 | 0.00 | 82 | 1015.0 |
| 20260903042321 | 86 | 192 | 2.0 | 12.0 | 0.00 | 0.00 | 0.00 | 82 | 1015.0 |
| 20260903041834 | 86 | 141 | 6.0 | 12.0 | 0.00 | 0.00 | 0.00 | 82 | 1015.0 |
| 20260903041326 | 86 | 154 | 4.0 | 12.0 | 0.00 | 0.00 | 0.00 | 82 | 1014.8 |
| 20260903040840 | 86 | 181 | 4.0 | 10.0 | 0.00 | 0.00 | 0.00 | 82 | 1014.8 |
| 20260903040333 | 86 | 140 | 3.0 | 12.0 | 0.00 | 0.00 | 0.00 | 82 | 1014.8 |
| 20260903035843 | 86 | 201 | 3.0 | 12.0 | 0.00 | 0.00 | 0.00 | 82 | 1014.4 |
| 20260903035332 | 86 | 132 | 5.0 | 11.0 | 0.00 | 0.00 | 0.00 | 82 | 1014.4 |
| 20260903034823 | 86 | 122 | 4.0 | 12.0 | 0.00 | 0.00 | 0.00 | 82 | 1014.4 |
| 20260903034337 | 86 | 111 | 9.0 | 12.0 | 0.00 | 0.00 | 0.00 | 82 | 1014.4 |
| 20260903033845 | 86 | 142 | 6.0 | 14.0 | 0.00 | 0.00 | 0.00 | 82 | 1014.4 |
| 20260903033337 | 86 | 159 | 7.0 | 14.0 | 0.00 | 0.00 | 0.00 | 81 | 1014.4 |
| 20260903032831 | 86 | 129 | 7.0 | 14.0 | 0.00 | 0.00 | 0.00 | 81 | 1014.4 |
| 20260903032322 | 86 | 156 | 7.0 | 13.0 | 0.00 | 0.00 | 0.00 | 80 | 1014.4 |
| 20260903031838 | 86 | 136 | 5.0 | 15.0 | 0.00 | 0.00 | 0.00 | 80 | 1014.4 |
| 20260903031330 | 86 | 172 | 8.0 | 15.0 | 0.00 | 0.00 | 0.00 | 80 | 1014.1 |
| 20260903030826 | 86 | 137 | 5.0 | 14.0 | 0.00 | 0.00 | 0.00 | 79 | 1014.1 |
| 20260903030339 | 87 | 165 | 8.0 | 14.0 | 0.00 | 0.00 | 0.00 | 77 | 1014.1 |
| 20260903025829 | 87 | 141 | 6.0 | 10.0 | 0.00 | 0.00 | 0.00 | 76 | 1013.9 |
| 20260903025322 | 87 | 125 | 4.0 | 11.0 | 0.00 | 0.00 | 0.00 | 75 | 1013.9 |
| 20260903024834 | 87 | 148 | 7.0 | 11.0 | 0.00 | 0.00 | 0.00 | 75 | 1013.9 |
| 20260903024329 | 87 | 207 | 5.0 | 12.0 | 0.00 | 0.00 | 0.00 | 73 | 1013.6 |
| 20260903023841 | 87 | 144 | 6.0 | 14.0 | 0.00 | 0.00 | 0.00 | 73 | 1013.6 |
| 20260903023332 | 87 | 144 | 10.0 | 14.0 | 0.00 | 0.00 | 0.00 | 72 | 1013.6 |
| 20260903022835 | 86 | 142 | 9.0 | 14.0 | 0.00 | 0.00 | 0.00 | 72 | 1013.3 |
| 20260903022327 | 86 | 131 | 3.0 | 9.0 | 0.00 | 0.00 | 0.00 | 73 | 1013.3 |
| 20260903021822 | 85 | 126 | 4.0 | 9.0 | 0.00 | 0.00 | 0.00 | 75 | 1013.3 |
| 20260903021339 | 85 | 117 | 3.0 | 7.0 | 0.00 | 0.00 | 0.00 | 76 | 1013.3 |
| 20260903020831 | 85 | 136 | 5.0 | 7.0 | 0.00 | 0.00 | 0.00 | 76 | 1013.3 |
| 20260903020343 | 85 | 126 | 2.0 | 5.0 | 0.00 | 0.00 | 0.00 | 76 | 1013.3 |
| 20260903015837 | 85 | 148 | 3.0 | 10.0 | 0.00 | 0.00 | 0.00 | 76 | 1013.3 |
| 20260903015329 | 85 | 137 | 2.0 | 10.0 | 0.00 | 0.00 | 0.00 | 77 | 1013.3 |
| 20260903014820 | 84 | 129 | 6.0 | 9.0 | 0.00 | 0.00 | 0.00 | 78 | 1013.3 |
| 20260903014356 | 84 | 141 | 1.0 | 3.0 | 0.00 | 0.00 | 0.00 | 80 | 1013.6 |
| 20260903013827 | 84 | 126 | 0.0 | 5.0 | 0.00 | 0.00 | 0.00 | 81 | 1013.6 |
| 20260903013345 | 84 | 131 | 3.0 | 5.0 | 0.00 | 0.00 | 0.00 | 80 | 1013.6 |
| 20260903012857 | 84 | 329 | 1.0 | 4.0 | 0.00 | 0.00 | 0.00 | 80 | 1013.8 |
| 20260903012333 | 84 | 10 | 1.0 | 5.0 | 0.00 | 0.00 | 0.00 | 79 | 1013.8 |
| 20260903011846 | 85 | 68 | 3.0 | 7.0 | 0.00 | 0.00 | 0.00 | 79 | 1013.8 |
| 20260903011332 | 85 | 89 | 1.0 | 7.0 | 0.00 | 0.00 | 0.00 | 78 | 1013.3 |
| 20260903010823 | 86 | 11 | 3.0 | 7.0 | 0.00 | 0.00 | 0.00 | 75 | 1013.3 |
| 20260903010338 | 88 | 68 | 3.0 | 7.0 | 0.00 | 0.00 | 0.00 | 72 | 1013.3 |